Wind_Speed
62 62 64 65 66 67 67 68 68 69 70 72 73 74 75 76 77 77 78 79 80 81 83 84 85 86 87 89 90 91 93 94 96 98 100 102 104 106 107 109 110 111 113 114 115 116 118 119 120 120 122 123 124 125 126 127 127 128 129 130 130 131 132 132 133 133 134 135 135 136 137 137 138 138 138 139 139 139 140 140 140 140 141 141 141
61 62 62 63 64 65 65 66 67 67 68 70 71 72 73 74 74 75 75 76 77 78 79 80 81 82 83 84 85 86 87 88 89 90 91 92 94 95 97 98 100 101 102 103 104 105 107 108 109 110 111 113 114 116 117 118 120 121 122 123 125 126 127 129 130 130 131 132 133 134 136 137 138 139 140 141 141 142 142 143 143 144 144 144 144
61 61 62 63 63 64 64 65 65 66 67 68 69 69 70 71 71 72 72 73 74 75 76 77 78 79 79 80 81 82 83 84 85 86 87 88 89 90 91 92 93 94 95 96 97 97 98 99 100 100 101 103 104 106 107 108 109 111 112 113 115 116 118 119 121 122 123 124 126 127 129 131 133 135 136 138 139 140 141 143 144 145 145 146 147
60 61 62 62 63 64 64 64 65 66 66 67 68 67 68 69 69 69 70 71 72 73 73 74 75 76 77 78 78 79 80 81 81 83 84 85 85 86 87 88 89 89 90 91 92 93 93 94 94 95 96 97 98 99 100 101 102 103 104 105 107 108 110 111 113 114 115 116 117 118 120 122 124 127 129 130 132 134 135 137 139 141 142 144 145
60 61 62 63 64 65 65 65 65 65 66 67 67 67 67 68 69 68 69 70 70 71 72 72 73 74 75 76 76 77 78 78 79 80 81 81 82 83 84 84 85 86 87 87 88 89 90 90 90 91 92 93 94 95 96 97 97 98 99 100 101 103 104 105 107 108 109 110 111 112 113 115 116 119 121 123 125 126 128 130 132 134 136 138 140
60 61 63 64 65 66 66 67 66 66 67 67 66 67 68 68 69 69 69 69 70 71 71 71 72 72 73 74 75 75 76 77 78 78 78 79 80 81 81 82 82 83 84 85 85 86 87 88 88 89 89 90 91 91 92 93 94 95 95 96 97 98 100 101 102 103 104 105 106 107 108 109 110 112 114 116 119 121 123 125 126 128 130 132 134
61 63 65 66 67 68 68 68 68 68 68 67 68 68 68 69 70 70 70 70 71 71 72 72 72 72 73 73 74 75 76 77 77 77 77 78 79 80 80 81 81 82 82 83 84 85 85 86 87 88 88 89 89 89 90 91 92 92 92 93 94 95 97 98 99 100 101 102 103 104 105 106 107 108 110 112 114 117 119 121 122 124 126 128 130
63 64 67 68 69 70 70 70 69 69 69 68 68 69 69 70 71 71 71 72 72 72 73 73 74 74 74 74 75 76 77 77 77 78 78 79 80 80 81 81 82 82 83 84 84 85 86 86 87 88 89 89 89 90 90 91 91 91 92 93 94 95 96 97 98 99 100 101 102 103 103 105 106 107 109 111 112 114 117 119 120 121 123 125 126
63 65 67 69 70 71 71 71 71 71 71 70 70 70 70 71 72 72 73 74 74 74 74 75 76 76 75 76 77 78 79 79 79 80 81 82 82 82 83 83 84 84 85 85 86 87 88 88 89 89 90 91 91 92 92 92 93 93 94 95 96 97 98 99 100 101 102 103 103 104 105 106 107 108 110 111 113 114 117 119 121 122 123 124 125
62 64 66 68 70 72 72 73 74 73 73 72 72 72 72 73 73 73 75 76 76 76 77 77 78 78 78 78 79 80 80 81 81 82 83 83 84 84 85 85 86 86 87 87 88 89 89 90 91 91 92 92 93 94 94 95 95 95 96 97 98 99 100 101 102 103 104 105 106 106 107 108 109 110 112 113 114 116 118 120 122 124 125 125 126
61 62 63 65 67 69 70 71 73 73 73 73 73 73 73 74 75 75 76 77 78 79 79 80 80 80 81 81 82 82 83 82 83 84 85 85 86 86 87 87 88 88 88 89 90 91 91 91 92 93 93 94 95 95 96 96 96 97 97 98 99 100 101 102 104 105 106 107 108 108 109 110 111 112 114 115 116 118 119 121 123 125 126 128 129
58 60 61 63 64 66 67 68 69 69 69 70 71 72 72 74 75 76 77 78 79 79 80 81 82 82 83 84 84 85 85 85 85 86 87 87 88 88 89 89 89 90 90 91 92 93 93 93 94 94 95 96 97 97 98 98 98 98 98 99 100 101 102 103 104 105 106 107 108 109 110 111 113 114 115 117 118 119 121 122 124 125 126 128 129
53 55 58 61 63 64 65 65 66 66 66 66 67 68 69 70 72 73 75 77 78 79 80 81 82 83 84 84 85 85 86 86 87 87 88 88 89 89 89 90 90 91 92 92 93 94 94 94 95 95 96 97 98 98 98 99 98 98 99 99 100 101 101 103 104 105 106 108 109 110 111 113 114 115 117 118 120 121 122 123 124 125 126 127 128
50 51 53 55 58 60 62 63 64 65 66 66 66 66 67 67 68 70 71 73 75 76 78 79 80 82 83 84 84 85 86 87 87 88 88 88 89 89 89 90 90 91 91 92 92 93 93 93 94 94 95 96 96 97 98 98 98 98 98 99 99 100 101 102 104 105 107 108 109 111 112 114 116 117 119 120 121 122 122 123 124 125 125 126 127
53 52 52 52 54 56 58 60 61 63 64 64 65 65 66 67 67 68 70 71 72 74 75 77 78 80 81 82 83 84 85 86 87 87 88 88 88 89 89 89 90 91 91 91 91 92 92 92 92 93 94 95 95 96 97 97 97 97 98 98 99 100 101 103 104 106 107 109 111 112 114 116 117 119 120 121 122 123 123 124 124 125 125 126 126
55 54 55 56 57 58 59 59 60 62 63 63 64 64 65 66 66 67 69 70 71 72 74 75 77 78 79 80 82 83 83 84 85 86 86 87 88 88 89 89 90 90 91 91 91 91 91 92 92 93 94 94 95 96 97 98 98 98 99 99 100 101 102 104 105 107 109 111 113 114 116 117 119 120 122 123 124 124 125 125 125 125 125 126 126
55 57 58 60 62 64 65 64 63 63 64 64 65 65 66 66 67 67 68 69 70 72 73 74 76 78 79 80 81 82 83 84 84 85 86 87 87 88 89 89 90 91 91 91 91 91 91 92 93 94 94 95 96 97 98 99 100 100 100 101 102 103 104 105 107 109 111 113 115 116 118 120 121 122 123 124 124 124 125 125 125 125 125 125 125
57 60 61 62 66 69 71 71 68 66 66 66 67 67 68 68 69 69 70 70 71 72 73 74 75 77 78 80 81 82 83 84 85 86 87 88 88 89 90 91 92 92 92 92 92 93 93 94 95 95 96 97 98 99 99 100 101 102 102 103 104 105 106 108 110 112 114 116 117 119 120 122 122 123 123 124 124 124 124 125 125 125 124 123 123
61 62 63 65 68 72 75 77 75 71 70 70 70 70 70 70 71 72 72 73 74 75 76 77 77 78 79 80 81 82 83 84 86 87 88 89 90 90 91 92 93 93 93 94 94 95 95 96 97 97 98 99 100 101 102 102 103 104 105 106 107 108 110 112 113 115 117 118 119 120 121 122 122 122 123 123 123 124 124 124 123 123 122 121 120
67 67 67 68 72 75 78 81 80 78 77 76 75 74 74 74 74 74 75 76 77 78 79 80 81 82 82 83 84 85 86 87 88 89 90 91 91 92 93 94 95 95 95 96 96 97 98 98 99 99 100 101 102 103 104 105 106 107 108 109 110 112 113 115 116 117 118 119 120 120 121 121 121 121 122 122 123 123 122 122 121 120 119 118 117
74 74 73 74 76 79 81 84 84 83 83 82 81 79 79 79 79 79 79 79 80 81 82 84 84 85 86 87 88 88 89 90 91 92 93 94 95 96 96 97 97 98 98 99 99 100 101 102 102 102 103 104 105 106 107 108 108 109 111 112 113 115 116 117 118 118 118 118 119 119 120 120 121 121 122 122 121 120 119 119 118 117 116 115 115
81 80 79 81 82 84 85 87 88 87 87 87 86 85 85 84 84 84 84 84 84 85 86 87 88 89 89 90 91 92 93 94 95 96 97 98 98 99 100 101 101 101 102 102 103 104 105 105 105 106 106 107 108 109 110 110 111 112 113 114 115 116 117 117 117 117 117 117 118 118 119 120 120 120 120 119 119 117 116 116 115 115 115 114 113
87 85 85 86 87 88 89 90 91 91 90 90 90 90 90 89 89 88 88 89 89 89 90 90 91 92 93 93 94 94 95 96 98 99 100 101 102 103 104 104 104 104 105 106 107 107 108 108 108 108 109 110 111 112 112 112 113 114 114 115 115 116 116 116 116 115 116 116 117 118 119 119 118 118 117 117 116 115 114 114 114 113 113 113 112
92 90 90 91 92 93 93 93 94 95 95 94 94 93 93 93 93 92 92 92 93 93 93 93 94 94 95 95 96 96 97 98 100 101 102 103 104 105 106 107 107 107 107 108 109 109 110 110 110 110 111 112 112 113 113 113 114 114 114 114 114 114 114 114 114 114 115 116 116 117 117 116 116 115 115 114 113 113 113 112 113 113 112 112 111
95 94 94 95 96 97 97 97 97 98 98 98 98 97 96 96 96 95 95 95 95 95 95 95 95 96 96 96 97 98 99 100 101 103 103 104 105 107 108 108 109 109 109 109 110 110 111 111 111 112 112 113 113 113 113 113 113 113 112 112 112 113 113 113 114 114 114 114 114 115 114 114 113 113 113 112 112 112 111 112 112 112 111 110 109
95 95 96 97 98 99 99 100 100 100 100 100 100 100 99 98 97 97 97 97 96 96 96 96 96 96 96 97 97 99 100 102 103 104 105 105 106 107 108 109 109 109 109 110 110 111 111 111 112 112 112 112 112 112 112 112 112 112 112 112 112 112 112 113 113 113 112 112 112 112 112 112 112 112 112 111 111 111 111 111 111 110 109 108 107
92 93 94 95 97 98 99 100 100 100 101 101 101 101 100 100 99 99 99 98 98 97 97 97 97 97 98 98 99 101 102 104 105 105 106 107 107 108 109 110 110 110 110 110 110 111 111 111 112 112 112 112 112 112 112 112 112 112 113 113 112 112 111 111 110 110 110 110 111 111 111 111 111 111 111 111 110 110 110 110 109 108 107 106 105
91 91 92 93 94 96 97 98 98 99 99 100 100 100 100 100 99 99 99 99 98 98 98 98 99 99 100 100 102 103 104 106 107 107 108 108 109 109 110 110 111 111 111 111 112 112 112 112 112 112 112 112 112 112 112 113 112 112 112 111 110 109 108 108 108 108 109 109 110 110 110 110 110 110 110 110 110 110 109 108 108 107 105 104 104
92 92 92 92 92 94 95 96 97 98 98 98 97 97 97 97 97 97 97 97 97 97 97 98 98 99 100 102 103 104 105 107 108 108 109 109 110 110 111 111 111 111 112 112 113 113 113 113 113 112 112 112 112 112 112 111 111 110 109 108 107 106 106 106 107 108 108 109 109 109 109 109 109 109 109 109 109 109 108 107 105 105 104 103 102
94 94 94 93 93 94 94 95 96 97 97 97 96 95 94 94 94 94 94 95 95 95 96 97 98 99 100 102 103 104 105 106 107 108 108 108 109 109 110 110 110 111 112 112 112 112 112 112 112 111 111 111 111 110 110 109 108 107 106 106 105 105 105 106 107 108 108 109 109 109 109 108 108 108 108 108 108 107 105 104 103 103 102 101 99
97 96 96 96 96 96 96 96 97 97 97 97 96 95 94 94 94 94 94 95 96 96 97 99 100 101 102 102 103 104 105 105 106 106 107 107 107 108 108 108 109 109 110 111 111 110 110 110 109 109 109 109 109 109 108 107 107 106 105 105 104 105 105 106 107 108 108 109 108 108 108 108 107 107 107 106 106 105 103 101 101 100 100 99 98
98 98 97 97 97 97 98 98 98 98 98 97 96 95 95 95 96 96 97 97 98 99 100 101 102 103 103 104 104 105 105 105 106 106 107 107 107 107 107 107 108 108 109 109 109 109 109 108 108 108 108 109 109 108 108 107 106 105 105 104 104 105 105 106 107 108 108 108 108 108 107 107 106 106 106 105 104 103 100 99 99 98 97 97 96
98 97 97 97 97 97 98 98 99 99 99 98 97 97 97 97 98 98 99 100 100 101 102 103 104 104 105 105 106 106 107 107 108 108 109 108 108 108 108 108 108 109 109 109 109 109 108 108 108 108 109 109 109 109 108 107 106 105 105 104 104 104 105 106 106 107 108 108 108 107 106 106 105 105 104 103 102 100 98 97 96 96 95 95 95
96 96 96 96 95 95 96 97 97 97 97 97 97 97 98 98 99 99 100 101 101 102 102 103 104 105 106 107 107 108 109 109 110 110 110 109 109 109 109 109 110 110 110 109 109 109 109 109 109 109 109 109 109 109 108 107 106 106 105 104 103 104 104 105 106 106 107 107 106 106 105 104 104 103 102 102 101 98 96 95 94 94 93 94 94
93 93 93 93 93 93 93 94 94 95 96 96 96 97 97 98 98 99 100 101 101 102 102 103 104 105 106 107 108 109 109 110 110 110 110 109 109 110 110 111 111 110 110 109 109 109 109 109 109 109 109 109 109 109 108 106 106 105 104 103 103 103 103 104 105 105 105 105 105 104 103 102 102 101 101 101 99 96 94 93 93 92 92 93 93
88 88 88 89 90 90 90 90 91 92 93 94 94 94 94 94 95 96 97 98 99 100 101 102 103 105 106 107 107 108 108 108 108 109 109 109 109 110 110 110 110 109 109 109 109 109 109 109 109 109 109 109 109 108 106 105 105 104 104 103 102 102 102 102 103 104 104 103 102 101 100 100 99 99 100 99 97 94 93 92 91 91 91 91 91
81 82 82 83 83 84 85 86 86 87 89 90 90 90 90 90 91 92 92 93 95 96 97 99 100 102 103 104 105 105 105 106 106 107 107 108 108 109 109 109 109 109 109 109 109 109 109 108 108 108 108 108 107 107 105 104 104 103 103 102 101 100 100 100 101 101 101 100 99 99 99 98 98 98 98 97 95 94 92 91 91 90 90 89 89
76 76 77 77 78 79 80 80 81 81 83 85 85 85 86 86 86 87 87 88 89 90 92 93 94 96 97 99 100 101 102 102 103 104 105 106 107 107 107 108 108 108 108 107 107 107 107 107 107 107 107 106 106 105 104 103 103 102 101 100 99 99 98 98 98 98 97 96 96 97 97 97 96 96 96 95 94 93 92 91 90 89 88 88 88
76 75 74 74 75 76 77 77 78 78 78 79 79 79 80 81 82 82 82 83 84 86 87 87 88 89 91 92 93 95 96 97 99 100 101 102 103 103 104 105 105 105 105 105 105 105 105 105 105 105 105 104 104 104 103 102 101 101 99 98 97 96 96 96 95 94 93 93 94 95 95 95 94 93 93 93 93 93 92 91 89 87 86 86 86
77 77 76 74 73 73 74 75 76 76 75 75 75 75 75 76 77 77 78 79 80 81 81 82 83 84 85 86 87 89 90 92 93 95 96 97 97 98 99 100 101 101 101 101 102 102 102 103 103 103 102 102 102 102 101 99 99 98 97 96 94 94 94 93 92 91 90 91 92 93 93 92 91 91 91 92 92 92 91 89 87 85 84 83 83
75 76 77 76 74 74 74 74 74 74 74 73 73 72 72 73 73 74 75 76 76 76 77 78 79 79 80 82 83 85 86 88 89 90 90 91 92 93 94 94 95 95 96 97 98 98 99 99 99 99 99 99 99 99 98 97 96 95 94 93 92 91 91 90 89 88 88 89 90 90 90 90 90 90 90 91 91 91 89 86 85 83 81 80 80
74 74 75 74 73 73 74 74 74 73 72 71 71 71 71 72 72 72 74 74 74 74 74 74 75 76 77 78 80 81 82 83 84 84 85 86 87 88 88 89 90 90 91 92 93 94 94 95 95 95 95 95 95 95 95 94 93 92 91 90 88 88 87 86 85 86 86 87 87 87 87 88 89 89 89 90 89 88 87 85 83 81 79 78 78
73 74 74 73 71 71 72 73 73 72 71 70 69 69 69 70 71 72 73 73 73 73 73 73 73 74 75 76 77 77 78 79 80 80 81 81 82 83 84 84 85 86 87 88 89 90 90 91 91 91 91 91 91 91 91 90 90 89 88 86 85 84 84 83 83 83 84 84 84 84 85 86 87 88 88 88 87 86 84 83 81 79 78 78 78
68 69 71 70 69 69 69 70 70 70 69 68 68 67 68 68 69 70 71 71 72 72 72 72 73 73 73 73 74 74 75 76 76 77 77 77 78 78 79 80 81 82 83 84 85 86 86 86 86 87 87 87 87 87 87 87 86 85 84 83 82 81 80 80 80 80 80 81 81 82 84 84 85 86 86 86 85 84 82 81 80 79 79 78 78
62 63 64 65 65 65 65 66 67 67 66 65 65 64 65 65 66 67 67 68 69 69 69 70 70 70 71 70 71 71 71 72 72 73 73 73 74 74 75 76 77 78 79 80 81 81 81 81 82 83 83 84 83 83 83 83 82 81 80 79 78 78 78 78 77 77 78 79 80 80 81 82 83 83 84 83 83 82 81 81 81 80 79 78 77
59 59 60 60 61 61 61 62 63 63 63 62 62 62 61 62 62 63 64 64 65 65 66 66 67 67 67 67 67 67 67 68 68 69 69 70 70 71 72 73 74 75 75 76 76 76 77 77 78 79 80 79 79 79 79 78 77 76 76 75 75 76 76 76 75 75 76 77 78 78 78 79 80 80 80 80 80 81 81 81 81 80 79 78 77
58 57 57 57 57 58 58 59 59 59 59 59 59 59 59 59 59 60 60 61 62 62 63 63 64 64 64 64 64 64 64 65 65 66 67 67 68 68 69 70 71 71 71 71 72 72 73 73 74 74 75 75 75 75 74 73 72 72 72 73 74 74 74 74 74 75 75 75 75 75 75 76 77 77 77 78 79 80 81 80 80 79 79 78 77
57 57 56 56 56 56 56 57 57 57 57 57 57 57 57 56 57 57 57 58 58 59 59 60 60 61 61 61 61 62 62 63 63 64 64 65 65 65 66 67 67 67 67 67 67 68 68 69 69 69 70 70 70 70 69 69 69 69 71 72 73 73 73 74 74 74 73 72 72 72 73 74 74 74 75 76 77 78 79 78 78 78 77 77 75
57 57 56 55 55 55 55 56 56 56 56 55 55 55 55 55 55 55 55 55 56 56 57 57 58 58 58 59 59 59 60 60 60 61 61 61 62 62 62 63 63 62 62 62 63 64 64 64 64 65 65 65 66 67 67 67 68 69 70 71 71 72 72 72 72 72 71 70 70 70 71 72 73 73 73 74 75 76 76 76 77 76 76 75 74
55 55 54 54 53 54 54 55 55 54 54 54 54 53 53 53 53 53 53 53 54 54 54 55 55 55 56 56 56 57 57 57 58 58 58 58 58 58 58 59 59 58 58 59 60 61 61 60 61 61 62 63 64 66 66 66 67 69 69 70 70 70 70 70 70 69 68 68 69 70 71 71 71 71 72 72 73 74 74 74 74 74 74 73 72
54 53 53 52 52 52 52 53 53 53 53 53 52 52 52 51 51 51 51 51 51 52 52 52 52 52 53 53 53 53 54 54 55 55 55 55 55 56 56 56 56 56 57 57 58 58 59 59 59 60 61 62 63 64 65 66 67 68 68 68 68 68 68 68 68 68 67 67 68 69 69 69 70 70 70 71 71 72 72 72 72 71 71 70 69
Wind_Direction
267 266 266 266 265 265 265 264 263 262 262 262 262 262 262 262 262 261 261 261 261 261 260 260 260 260 260 260 260 261 260 260 260 260 260 260 260 260 260 261 261 261 261 261 262 262 262 262 262 262 262 263 263 263 263 263 263 263 263 264 264 264 264 264 264 264 264 264 264 264 264 264 264 263 263 263 263 263 262 262 261 261 261 260 260
270 269 269 269 269 268 268 267 266 265 265 264 263 263 263 263 263 263 263 262 262 262 262 262 262 262 262 262 262 262 262 262 262 262 262 262 262 262 261 261 261 261 261 261 261 262 262 262 262 262 262 262 262 262 262 262 263 263 263 263 263 263 263 263 263 264 264 264 264 264 264 264 264 264 264 263 263 263 263 263 262 262 262 261 261
271 271 271 270 270 270 269 269 269 269 268 267 266 266 266 266 265 265 265 265 264 264 264 264 264 264 264 263 263 263 263 263 263 263 263 263 263 263 263 263 263 263 262 262 262 262 262 262 262 262 262 263 263 263 263 263 263 263 263 263 263 263 263 263 263 263 263 263 263 263 263 264 264 264 264 263 263 263 263 263 263 262 262 262 261
271 271 271 271 270 270 269 269 269 269 269 268 268 268 268 267 267 267 267 267 266 266 266 266 266 266 266 265 265 265 264 264 264 264 264 264 264 264 264 264 264 264 264 264 264 264 263 263 263 263 263 263 263 263 263 263 263 263 263 263 263 263 263 263 263 263 262 263 263 263 263 263 263 263 263 263 263 263 263 263 263 263 262 262 262
271 272 272 271 271 270 269 269 268 268 268 268 269 269 269 269 268 268 268 267 267 267 267 266 266 266 266 266 266 265 265 265 265 264 265 265 265 265 265 265 265 265 265 265 265 265 265 265 264 264 264 264 264 264 264 264 264 264 264 264 264 264 264 264 264 263 263 263 263 263 263 263 264 264 264 264 263 263 263 263 263 263 262 262 262
270 270 271 270 270 270 269 269 268 268 268 268 268 268 268 268 268 268 267 267 267 267 267 266 266 266 265 265 265 265 265 265 264 265 265 265 265 265 265 265 265 265 265 265 265 265 265 265 265 264 264 264 264 264 264 264 264 264 264 264 264 264 264 264 264 264 264 264 264 264 263 263 264 264 264 264 264 264 263 263 263 263 263 262 262
267 268 268 268 268 268 268 268 269 269 269 269 268 268 268 268 267 267 266 266 266 266 266 266 265 265 265 265 265 265 265 265 265 265 265 265 265 265 265 265 265 265 265 265 265 266 266 266 266 265 265 265 264 264 264 264 264 265 265 265 265 265 265 265 265 265 265 265 265 265 265 265 265 265 265 265 265 265 265 264 264 264 263 263 263
266 266 267 267 267 267 267 267 268 268 268 268 268 268 268 268 268 268 268 267 267 266 267 266 266 265 265 265 265 265 265 265 265 265 265 265 265 265 265 265 265 265 265 265 265 265 266 266 266 266 266 266 266 265 265 265 265 265 265 265 265 265 265 265 266 266 266 266 266 266 265 265 265 265 266 266 266 266 266 266 265 265 265 265 264
267 267 268 269 269 269 269 269 268 268 268 268 268 268 268 268 269 269 270 270 269 269 268 268 268 267 266 266 265 265 265 265 265 265 265 265 265 264 264 264 264 264 264 265 265 265 265 265 265 266 266 266 266 266 266 266 266 266 266 266 266 266 266 266 266 266 266 266 266 266 266 266 266 266 266 266 267 267 267 267 267 266 266 265 265
269 269 270 270 271 271 271 271 271 270 270 270 269 269 268 268 268 268 269 269 269 269 269 269 269 269 268 268 267 267 266 266 266 266 266 266 266 266 266 266 266 266 266 266 266 266 266 266 266 266 267 267 267 267 267 267 266 266 266 266 266 267 267 267 267 267 267 267 267 267 267 267 267 267 267 267 267 267 267 268 268 267 267 266 266
270 270 270 270 271 271 271 271 272 272 271 271 270 270 270 269 269 268 267 267 267 268 268 268 268 268 268 268 268 268 267 267 267 267 267 267 267 267 267 267 267 267 267 267 267 267 267 267 267 268 268 268 268 268 267 267 267 266 266 266 266 266 267 267 267 267 267 267 267 267 267 267 267 267 267 268 268 268 268 268 268 268 268 268 267
274 273 272 272 273 273 274 274 274 274 273 272 271 270 270 269 269 269 268 268 267 267 268 268 268 268 268 268 268 268 268 268 267 267 267 267 267 267 267 267 267 267 267 267 267 267 268 268 268 268 268 268 268 268 268 267 267 267 267 266 266 266 267 267 267 267 267 267 267 267 267 268 268 268 268 269 269 269 269 269 269 269 269 269 269
281 279 276 275 275 275 275 276 277 277 276 275 273 272 271 270 270 269 269 269 269 269 268 268 268 268 268 268 268 268 269 268 268 268 268 268 268 267 267 267 267 267 267 267 267 267 267 268 268 268 268 268 268 268 268 268 268 268 268 268 268 267 267 267 267 267 267 267 268 268 268 269 269 269 270 270 270 271 271 271 270 270 270 270 270
283 281 279 276 275 274 274 274 275 276 276 276 276 275 273 272 271 270 270 270 270 270 270 270 269 269 269 269 269 269 269 269 269 269 269 269 268 268 268 268 268 268 268 268 267 268 268 268 268 268 268 268 269 269 269 269 268 268 268 268 268 268 268 268 268 268 268 268 269 269 269 270 270 271 271 272 272 272 272 272 272 271 271 271 271
282 281 280 278 276 275 274 273 274 274 275 276 276 276 275 275 274 273 272 271 271 271 271 271 270 270 270 270 270 269 269 269 269 269 269 269 269 269 269 268 268 268 268 268 268 268 268 268 268 268 268 269 269 269 269 269 269 269 269 269 269 269 269 269 269 270 270 270 271 271 271 272 272 273 273 273 273 273 273 273 273 273 273 273 273
280 280 280 279 279 277 276 274 274 274 274 275 276 276 276 276 275 275 274 273 272 272 271 271 271 271 271 271 271 270 270 270 270 270 270 270 270 270 269 269 269 269 269 268 268 269 269 269 269 269 269 269 269 270 270 270 270 270 270 270 270 270 270 271 271 271 272 272 273 273 273 274 274 274 275 275 275 275 275 274 274 274 274 274 274
278 278 279 279 279 279 277 275 274 274 274 275 275 276 276 276 276 275 275 275 274 273 272 272 272 271 271 271 271 271 271 271 271 271 271 271 271 271 270 270 270 270 269 269 269 269 269 269 269 269 269 270 270 270 271 271 271 271 271 271 271 271 271 272 272 273 273 274 274 274 275 275 275 275 275 275 275 275 275 275 275 275 275 275 275
279 279 280 280 281 281 279 277 274 273 273 273 274 275 275 276 276 276 276 275 274 274 273 273 272 272 272 272 272 272 272 272 272 272 271 271 271 271 270 270 270 270 270 270 270 270 270 270 270 270 270 271 271 271 271 271 271 272 272 272 272 272 272 272 273 273 274 274 274 275 275 275 276 276 276 276 276 276 276 276 276 276 276 276 276
280 280 281 281 281 281 280 278 276 274 273 273 273 273 274 275 275 276 276 276 275 275 274 273 272 272 272 272 272 272 272 271 271 271 271 271 271 271 270 270 270 270 270 270 270 270 270 270 270 271 271 271 271 271 271 272 272 272 272 272 272 272 273 273 273 274 274 275 275 275 276 276 276 276 276 276 276 277 277 277 277 277 277 277 276
280 280 280 280 279 278 278 277 277 276 275 274 273 273 273 274 274 274 275 275 275 275 274 273 273 272 272 272 271 271 271 271 271 271 271 271 271 270 270 270 270 270 270 270 270 270 270 270 270 271 271 271 271 271 271 272 272 272 272 272 273 273 273 274 274 275 275 276 276 276 277 277 277 277 277 277 277 277 277 278 278 277 277 277 277
279 279 278 277 276 276 276 276 276 276 276 276 275 274 274 274 274 274 274 274 275 274 274 274 274 273 273 272 272 271 271 270 270 270 270 270 270 270 269 270 270 270 270 270 270 270 270 270 270 270 270 271 271 271 271 272 272 272 273 273 273 274 274 275 275 276 276 277 277 277 278 278 278 278 278 278 278 278 278 278 278 278 278 277 277
277 277 276 275 274 274 274 275 275 275 275 275 275 275 274 274 274 273 274 274 274 274 274 274 274 273 273 273 272 272 271 271 271 270 270 269 269 269 269 269 269 269 269 269 269 269 270 270 270 270 270 271 271 271 271 272 272 273 273 273 274 274 275 275 276 277 277 277 278 278 278 278 278 278 278 278 278 278 279 279 278 278 278 278 277
277 276 275 275 274 274 274 274 274 275 275 275 275 275 274 274 273 273 273 273 273 273 274 274 274 273 273 273 273 272 272 271 271 271 270 270 270 269 269 269 269 269 269 269 269 270 270 270 270 271 271 271 271 272 272 272 273 273 273 274 274 275 276 276 277 277 278 278 278 278 278 278 278 278 278 279 279 279 279 279 279 279 278 278 278
276 275 275 275 274 274 274 274 274 274 274 274 274 274 273 273 273 273 273 272 273 273 273 273 273 273 274 274 273 273 272 272 271 271 270 270 270 270 270 270 270 270 270 270 270 271 271 271 272 272 272 272 273 273 273 274 274 274 275 275 276 276 277 277 278 278 278 278 278 278 278 278 278 279 279 279 279 279 279 279 279 279 278 278 278
275 275 275 274 274 274 274 274 274 274 274 274 274 273 273 273 273 273 273 272 272 273 273 273 273 273 273 273 273 273 273 272 272 271 271 271 271 271 271 271 271 271 271 272 272 272 272 273 273 273 273 273 274 274 275 275 275 276 276 276 277 277 278 278 278 279 279 279 278 278 278 279 279 279 279 280 280 280 280 279 279 279 279 279 278
275 274 274 274 274 273 273 273 273 273 273 273 274 274 274 273 273 273 273 273 273 273 273 273 273 273 273 273 273 272 272 271 271 271 271 271 271 271 271 272 272 272 272 273 273 273 273 273 274 274 274 275 275 275 276 276 276 277 277 277 278 278 278 279 279 279 279 279 279 279 279 279 280 280 280 280 280 280 280 280 279 279 279 279 279
275 274 274 274 273 273 273 273 273 273 273 273 273 273 274 274 274 274 274 274 274 274 274 274 273 273 273 272 272 271 271 271 271 271 271 271 271 271 272 272 272 273 273 273 273 273 273 274 274 274 275 275 276 276 277 277 277 277 278 278 278 279 279 279 279 279 279 279 279 279 280 280 280 280 281 281 281 281 280 280 280 280 280 280 280
277 276 275 274 274 274 274 274 274 273 273 273 273 273 273 273 274 274 274 274 274 274 274 274 273 273 273 272 271 271 271 270 270 271 271 271 271 272 272 272 273 273 273 273 274 274 274 274 275 275 276 276 276 277 277 277 277 278 278 278 279 279 279 279 279 279 279 279 279 280 280 280 281 281 281 281 281 281 281 281 281 281 281 281 281
278 277 276 275 275 275 274 274 274 274 273 273 273 273 273 273 273 274 274 274 274 274 274 273 273 272 272 271 271 271 271 271 271 271 271 272 272 272 273 273 273 274 274 274 274 274 275 275 276 276 276 277 277 277 277 277 278 278 278 279 279 279 279 279 279 279 279 279 279 280 280 280 281 281 281 281 281 281 281 281 282 282 282 281 281
279 279 278 277 276 275 274 274 274 274 274 273 273 273 273 273 273 273 274 274 274 273 273 273 272 272 272 271 271 271 271 272 272 272 272 273 273 273 273 274 274 274 274 274 275 275 275 276 276 276 277 277 277 277 277 277 278 278 278 279 279 279 279 280 279 279 279 279 280 280 280 281 281 281 281 281 281 281 281 282 282 282 282 282 282
280 279 278 277 277 276 275 275 274 274 274 274 274 274 274 274 274 273 273 273 273 273 272 272 272 271 271 271 271 271 272 272 272 272 273 273 273 273 273 273 273 274 274 274 275 275 275 276 276 276 277 276 277 277 277 277 278 278 279 279 279 279 279 279 279 279 279 280 280 280 281 281 281 281 281 281 281 281 282 282 282 282 282 282 282
279 278 278 277 276 276 276 275 275 274 274 274 274 274 274 274 273 273 273 272 272 272 271 271 271 271 271 271 271 271 271 271 272 272 272 272 272 272 273 273 273 273 274 274 274 275 275 276 276 276 276 276 277 277 277 278 278 278 279 279 279 279 279 279 279 280 280 280 281 281 281 281 281 281 281 281 282 282 283 283 283 283 283 282 282
280 279 278 277 277 276 276 275 275 275 274 274 274 274 273 273 272 272 271 271 270 270 270 270 270 270 270 271 271 271 271 271 271 271 271 271 272 272 273 273 273 273 273 274 274 275 275 275 276 276 276 276 277 277 277 278 278 278 278 279 279 279 279 279 279 280 280 281 281 281 282 282 281 281 282 282 282 283 283 283 283 283 282 282 282
280 279 279 278 277 277 276 276 275 275 274 274 273 273 272 271 271 270 270 270 269 269 269 269 269 269 269 269 269 269 269 270 270 270 271 271 272 272 272 272 272 272 273 273 274 274 275 275 275 275 276 276 276 277 277 278 278 278 278 278 278 278 279 279 279 280 280 280 281 281 281 281 281 281 282 282 282 283 283 283 283 283 283 283 282
281 280 280 279 279 278 277 277 276 276 275 274 273 272 272 271 271 270 270 270 270 269 269 269 269 269 269 269 269 269 269 269 270 270 271 271 272 272 272 272 272 272 273 273 274 274 274 274 275 275 275 276 276 277 277 277 278 278 278 278 278 278 279 279 279 280 280 280 280 281 281 281 281 282 282 282 283 284 284 283 283 283 283 283 282
280 280 280 279 279 279 278 277 277 276 276 275 274 274 273 272 272 271 271 270 270 270 269 269 269 269 269 269 269 270 270 270 271 271 271 272 272 272 272 272 273 273 273 274 274 274 274 274 275 275 275 275 276 276 277 277 277 277 277 278 278 278 278 278 279 279 280 280 280 281 281 281 281 282 282 283 284 284 284 283 283 283 283 282 281
280 280 279 279 278 278 278 277 277 276 275 275 275 274 274 273 273 272 271 271 270 270 270 269 269 269 270 270 270 271 271 271 271 272 272 272 272 272 272 273 273 273 273 273 273 274 274 274 274 274 275 275 275 276 276 276 277 277 277 277 278 278 278 278 278 279 279 280 280 281 281 282 282 282 283 284 284 284 284 284 284 283 283 282 281
281 281 280 280 279 278 278 277 277 276 275 275 275 275 275 275 274 274 273 273 272 272 271 271 270 271 271 271 271 271 271 272 272 272 272 272 272 272 272 272 272 272 273 273 273 273 273 273 274 274 274 275 275 276 276 276 276 277 277 277 278 278 278 278 278 279 279 280 280 281 281 282 282 283 284 284 284 284 284 284 284 284 283 282 282
286 284 283 282 281 281 280 280 279 277 277 277 277 276 276 276 276 276 276 275 275 274 273 273 273 273 272 272 272 272 272 271 271 271 271 271 271 271 271 271 272 272 272 272 272 272 273 273 273 273 274 275 275 275 276 276 276 277 277 277 278 278 278 278 278 279 280 280 280 281 281 282 282 283 283 283 284 284 284 284 283 283 282 282 282
289 288 287 286 284 283 283 282 281 281 280 280 279 279 279 278 278 277 277 276 275 275 275 274 274 273 273 273 272 272 271 271 271 271 271 271 271 271 271 271 271 271 272 272 272 272 272 272 273 273 274 274 275 275 275 276 276 277 277 277 278 278 278 278 279 280 280 280 280 280 281 281 282 282 282 282 283 283 283 283 282 282 282 282 282
288 288 287 287 287 286 285 284 284 284 284 283 283 283 282 281 280 279 278 277 276 276 275 274 274 274 274 273 272 272 271 271 271 271 271 272 271 271 271 271 271 272 272 272 272 272 272 272 273 273 274 274 274 275 276 276 276 277 277 277 277 278 278 279 279 280 280 280 280 280 281 281 282 282 282 282 282 282 282 282 282 282 282 282 282
288 287 287 287 287 287 286 286 286 286 286 286 285 285 284 283 282 281 280 279 278 278 277 276 276 275 274 274 273 273 273 273 273 273 273 273 273 272 272 272 272 272 272 272 272 272 272 273 273 273 274 274 275 275 276 276 276 276 277 277 277 278 278 279 279 279 279 279 279 280 281 281 282 282 282 282 282 282 282 282 283 283 282 282 282
288 288 288 289 289 288 288 288 288 288 287 287 286 285 284 283 283 282 281 281 281 280 280 279 278 277 276 276 275 275 275 275 275 275 275 275 275 274 274 274 274 273 273 272 272 272 273 273 273 274 274 274 274 275 275 276 276 276 277 277 278 278 278 279 278 278 278 279 280 280 280 281 282 282 282 282 282 282 283 283 283 283 282 282 281
287 287 288 289 289 289 288 287 287 287 286 286 285 284 283 282 281 281 281 280 280 280 280 279 278 278 277 277 276 276 276 276 276 276 276 276 276 276 275 275 274 273 273 273 273 273 273 273 273 273 273 273 274 274 275 275 276 277 277 278 278 278 278 277 277 277 278 279 279 280 281 281 282 282 282 282 283 283 284 284 283 283 282 281 281
287 286 286 287 286 286 285 285 285 284 284 283 283 282 281 280 280 279 279 278 278 278 278 278 278 277 277 277 276 276 276 276 276 276 276 276 276 276 275 274 274 273 273 273 273 273 273 273 273 273 273 273 274 275 275 276 277 278 278 278 278 277 277 276 277 277 278 279 279 280 281 281 281 282 282 283 284 285 284 284 283 283 283 283 282
288 287 286 285 285 284 284 283 283 284 284 283 283 282 281 280 280 279 279 279 279 278 278 278 278 277 277 277 277 277 277 276 276 276 275 275 275 274 274 274 274 273 274 274 274 273 273 273 273 274 274 275 275 275 276 277 278 278 278 278 277 276 276 277 278 278 278 279 280 280 280 280 281 281 283 284 284 284 284 284 285 285 285 285 284
290 289 287 286 286 285 285 284 284 284 284 284 283 283 282 282 281 281 280 280 279 279 279 279 279 278 278 278 278 278 277 276 276 275 275 275 274 274 274 274 274 275 275 275 275 275 274 274 275 275 276 276 276 276 277 277 278 278 277 277 277 277 278 279 279 279 280 280 280 280 280 280 281 282 283 283 283 284 284 285 285 285 285 285 285
293 291 290 290 289 288 288 287 287 286 286 285 285 284 284 283 282 281 281 280 280 280 280 280 280 280 280 279 279 279 278 278 277 277 276 276 276 276 276 276 276 277 277 277 277 276 276 276 276 276 276 277 277 277 277 277 277 277 277 277 278 279 280 280 280 281 281 281 281 281 281 281 282 282 283 283 283 284 284 285 285 285 285 285 285
295 294 293 293 292 291 291 290 290 289 289 288 287 287 286 285 284 284 283 283 282 282 282 281 281 281 281 281 280 280 280 279 279 279 279 279 278 278 278 278 279 279 279 278 277 277 276 276 276 276 277 277 277 277 277 277 277 277 278 279 279 280 281 281 281 281 282 282 282 282 282 282 282 283 283 283 284 284 284 285 285 286 286 286 286
295 294 294 294 293 293 292 292 292 291 291 290 290 289 288 287 287 286 286 285 285 284 283 283 283 282 282 281 281 281 281 281 281 281 281 280 280 280 280 280 280 279 279 278 277 277 277 277 277 276 276 276 277 277 278 278 279 279 279 280 280 281 281 282 282 282 283 283 283 282 282 283 283 284 284 284 284 285 285 286 286 287 287 287 287
296 296 295 294 294 293 293 293 293 292 292 292 291 290 290 289 288 288 287 286 285 284 283 283 282 282 282 281 281 281 281 281 281 281 281 280 280 280 280 279 279 279 278 278 277 277 277 277 277 277 277 277 278 279 280 280 280 280 281 281 281 282 283 283 283 283 283 283 283 283 284 285 285 285 285 285 285 286 286 286 286 286 286 286 286
Height
10493 10493 10490 10490 10489 10488 10488 10489 10489 10490 10488 10487 10486 10484 10482 10482 10483 10483 10483 10484 10483 10482 10481 10480 10480 10480 10480 10479 10479 10480 10480 10480 10478 10478 10478 10477 10477 10477 10477 10478 10479 10479 10479 10478 10478 10478 10479 10480 10480 10479 10479 10478 10478 10477 10477 10478 10478 10478 10478 10478 10478 10478 10478 10477 10479 10480 10479 10478 10478 10478 10476 10476 10477 10478 10479 10479 10479 10480 10482 10483 10484 10486 10487 10489 10491
10483 10482 10481 10480 10479 10478 10478 10477 10477 10478 10477 10476 10475 10474 10473 10472 10472 10472 10472 10472 10471 10471 10470 10469 10468 10469 10469 10469 10468 10468 10468 10467 10466 10466 10465 10464 10464 10464 10464 10464 10465 10466 10466 10465 10464 10465 10465 10465 10465 10465 10464 10463 10463 10462 10462 10462 10463 10463 10463 10463 10463 10462 10461 10461 10462 10463 10463 10462 10461 10461 10459 10458 10459 10460 10460 10460 10461 10462 10464 10464 10465 10466 10468 10469 10471
10474 10473 10472 10471 10470 10469 10469 10468 10467 10466 10465 10464 10463 10464 10463 10462 10461 10461 10461 10461 10460 10460 10460 10458 10458 10458 10458 10457 10457 10458 10457 10455 10455 10455 10453 10452 10452 10452 10451 10451 10452 10452 10452 10452 10451 10452 10452 10452 10452 10452 10451 10449 10448 10448 10448 10448 10448 10448 10448 10448 10448 10447 10446 10445 10446 10447 10446 10445 10445 10445 10443 10441 10442 10442 10442 10442 10442 10444 10445 10445 10446 10446 10448 10449 10451
10466 10464 10463 10462 10461 10460 10460 10459 10458 10456 10455 10453 10453 10453 10453 10452 10451 10452 10451 10450 10450 10449 10449 10449 10449 10448 10446 10446 10446 10446 10445 10445 10444 10443 10441 10441 10441 10440 10439 10439 10439 10439 10438 10438 10438 10438 10438 10439 10439 10439 10438 10437 10435 10435 10434 10434 10434 10434 10434 10434 10433 10432 10431 10430 10430 10430 10430 10430 10430 10430 10428 10427 10425 10424 10424 10424 10425 10425 10426 10426 10427 10427 10428 10430 10431
10458 10456 10455 10453 10451 10450 10450 10450 10449 10448 10446 10445 10445 10444 10443 10442 10442 10442 10442 10440 10440 10439 10439 10440 10439 10438 10436 10435 10435 10435 10434 10433 10432 10431 10431 10431 10429 10428 10428 10428 10427 10426 10426 10426 10425 10425 10425 10425 10426 10425 10424 10424 10423 10422 10421 10421 10421 10421 10421 10421 10420 10418 10417 10416 10415 10415 10416 10416 10415 10415 10415 10414 10411 10408 10407 10407 10407 10408 10408 10408 10408 10409 10409 10410 10411
10452 10449 10446 10444 10441 10440 10440 10439 10439 10439 10438 10438 10437 10436 10434 10433 10433 10433 10432 10431 10430 10429 10429 10429 10429 10428 10426 10425 10425 10424 10423 10421 10420 10421 10421 10420 10418 10417 10417 10417 10416 10415 10415 10414 10413 10413 10413 10412 10412 10412 10411 10411 10411 10410 10409 10408 10408 10408 10408 10408 10406 10405 10403 10402 10401 10401 10401 10401 10400 10400 10400 10400 10398 10395 10392 10391 10390 10391 10391 10391 10391 10391 10392 10392 10392
10444 10441 10437 10435 10432 10431 10430 10429 10430 10429 10429 10429 10428 10427 10426 10424 10423 10423 10422 10422 10420 10419 10418 10418 10418 10417 10417 10416 10415 10414 10412 10410 10410 10411 10410 10408 10407 10407 10407 10406 10405 10404 10403 10402 10402 10401 10400 10400 10399 10398 10398 10398 10399 10398 10396 10396 10396 10396 10396 10395 10393 10391 10389 10388 10387 10387 10387 10386 10386 10385 10385 10385 10384 10382 10379 10376 10375 10373 10372 10373 10374 10374 10374 10374 10375
10436 10433 10429 10426 10424 10422 10421 10420 10421 10420 10419 10420 10419 10417 10417 10415 10414 10413 10412 10411 10410 10410 10409 10407 10407 10407 10407 10406 10405 10403 10401 10400 10400 10400 10399 10397 10397 10396 10396 10395 10394 10393 10392 10391 10391 10390 10389 10387 10387 10386 10386 10386 10386 10385 10385 10384 10384 10384 10383 10381 10380 10378 10376 10375 10374 10374 10373 10372 10372 10371 10371 10370 10369 10368 10365 10363 10362 10359 10355 10354 10356 10358 10357 10357 10357
10427 10424 10420 10417 10415 10413 10412 10411 10410 10410 10409 10410 10409 10408 10407 10406 10405 10404 10402 10400 10400 10400 10399 10397 10396 10396 10397 10396 10394 10393 10391 10390 10390 10389 10388 10386 10385 10385 10384 10383 10383 10382 10381 10380 10379 10378 10377 10375 10374 10374 10373 10372 10372 10372 10372 10372 10372 10372 10370 10368 10367 10365 10364 10362 10361 10360 10359 10358 10358 10357 10357 10356 10354 10353 10351 10349 10348 10345 10341 10337 10337 10339 10340 10340 10340
10418 10416 10412 10409 10406 10403 10402 10401 10399 10399 10399 10400 10399 10398 10398 10397 10396 10395 10392 10390 10389 10388 10388 10386 10385 10384 10385 10384 10382 10381 10380 10380 10379 10378 10376 10375 10374 10373 10372 10372 10371 10370 10369 10368 10367 10365 10364 10363 10362 10361 10360 10359 10358 10358 10357 10357 10357 10358 10357 10355 10353 10352 10351 10349 10346 10345 10344 10343 10342 10342 10341 10340 10339 10337 10335 10334 10332 10331 10328 10323 10319 10319 10320 10321 10322
10410 10407 10404 10401 10398 10394 10392 10391 10389 10389 10389 10389 10388 10387 10387 10387 10385 10384 10382 10380 10378 10376 10376 10376 10374 10373 10372 10371 10370 10369 10368 10368 10368 10366 10364 10363 10362 10361 10361 10360 10359 10358 10357 10356 10354 10352 10352 10350 10349 10348 10347 10346 10344 10343 10342 10342 10343 10343 10343 10342 10340 10339 10337 10335 10333 10331 10329 10328 10327 10326 10325 10325 10323 10321 10319 10318 10316 10314 10313 10310 10304 10301 10301 10299 10299
10400 10398 10395 10392 10389 10386 10383 10381 10379 10378 10377 10377 10377 10376 10376 10375 10374 10373 10371 10369 10368 10366 10365 10364 10363 10362 10360 10359 10358 10357 10356 10356 10355 10353 10352 10351 10350 10349 10349 10348 10347 10346 10345 10344 10342 10340 10340 10338 10337 10336 10334 10332 10330 10329 10328 10328 10328 10329 10328 10328 10326 10325 10323 10321 10319 10317 10315 10313 10312 10310 10309 10308 10307 10305 10303 10301 10299 10297 10295 10293 10289 10286 10285 10281 10277
10392 10389 10386 10384 10381 10378 10375 10372 10369 10367 10366 10365 10365 10365 10364 10364 10363 10362 10360 10357 10356 10355 10353 10352 10351 10350 10348 10347 10346 10345 10344 10343 10341 10340 10340 10339 10337 10337 10336 10335 10334 10333 10332 10331 10329 10328 10327 10325 10324 10323 10321 10318 10316 10314 10314 10313 10314 10313 10313 10312 10311 10310 10308 10306 10304 10302 10300 10298 10297 10295 10293 10291 10290 10288 10286 10284 10282 10280 10277 10275 10272 10270 10268 10265 10260
10385 10382 10379 10376 10373 10370 10367 10364 10361 10358 10356 10354 10353 10353 10352 10352 10351 10350 10348 10346 10345 10344 10341 10340 10339 10337 10335 10335 10334 10332 10331 10330 10328 10327 10326 10325 10324 10323 10323 10322 10320 10319 10318 10317 10315 10314 10314 10313 10311 10309 10307 10305 10302 10300 10299 10299 10299 10299 10298 10297 10296 10294 10293 10291 10289 10286 10285 10283 10281 10280 10277 10275 10273 10271 10268 10266 10264 10262 10260 10257 10255 10252 10250 10247 10244
10377 10375 10371 10368 10365 10362 10359 10356 10353 10350 10347 10345 10343 10342 10341 10340 10339 10338 10337 10335 10333 10332 10330 10328 10326 10324 10323 10322 10320 10319 10318 10317 10316 10314 10313 10312 10311 10310 10309 10308 10306 10305 10304 10303 10302 10301 10301 10300 10298 10296 10293 10291 10289 10287 10285 10284 10284 10284 10283 10282 10281 10279 10278 10276 10273 10271 10269 10267 10264 10262 10260 10257 10255 10253 10250 10247 10245 10243 10241 10239 10237 10235 10232 10230 10226
10368 10366 10362 10359 10355 10353 10350 10347 10345 10341 10338 10336 10334 10332 10331 10329 10328 10327 10325 10324 10322 10321 10318 10316 10314 10312 10311 10308 10307 10306 10305 10304 10303 10301 10300 10299 10298 10296 10295 10294 10292 10291 10290 10289 10289 10288 10287 10286 10283 10282 10280 10278 10276 10274 10271 10269 10268 10268 10268 10267 10266 10264 10263 10260 10257 10255 10252 10250 10247 10244 10242 10239 10237 10234 10231 10228 10226 10224 10222 10220 10218 10216 10214 10211 10208
10360 10357 10353 10350 10345 10341 10338 10336 10335 10332 10330 10328 10325 10323 10321 10319 10318 10316 10315 10313 10311 10309 10307 10305 10303 10300 10298 10296 10294 10293 10291 10291 10289 10288 10286 10285 10284 10283 10281 10280 10278 10277 10276 10275 10275 10274 10273 10271 10269 10267 10266 10265 10263 10260 10258 10255 10254 10253 10252 10252 10250 10249 10247 10245 10242 10239 10236 10233 10230 10227 10224 10221 10218 10216 10212 10210 10207 10205 10203 10200 10198 10196 10194 10192 10189
10350 10347 10344 10341 10335 10329 10325 10323 10323 10322 10321 10319 10316 10314 10312 10309 10307 10305 10304 10301 10299 10297 10296 10293 10291 10289 10287 10285 10283 10281 10279 10278 10276 10274 10273 10271 10270 10269 10267 10265 10264 10263 10262 10261 10260 10260 10258 10256 10254 10253 10252 10251 10249 10247 10244 10242 10240 10238 10237 10236 10235 10233 10231 10229 10225 10222 10220 10217 10213 10209 10206 10203 10200 10197 10193 10191 10188 10186 10184 10181 10179 10176 10174 10173 10171
10339 10336 10334 10331 10325 10319 10314 10310 10309 10310 10310 10308 10305 10304 10302 10299 10297 10295 10292 10289 10287 10285 10283 10281 10279 10277 10275 10274 10271 10270 10268 10266 10264 10262 10260 10258 10256 10255 10253 10251 10249 10249 10248 10247 10246 10245 10243 10241 10240 10239 10238 10236 10234 10232 10230 10228 10226 10224 10222 10221 10219 10217 10215 10212 10209 10206 10203 10200 10196 10192 10188 10184 10181 10178 10174 10172 10169 10167 10165 10162 10159 10157 10155 10153 10151
10326 10324 10323 10320 10314 10308 10303 10299 10298 10297 10297 10295 10294 10293 10291 10289 10286 10284 10281 10279 10276 10273 10270 10268 10266 10265 10263 10261 10259 10257 10255 10253 10251 10249 10247 10245 10242 10240 10238 10236 10235 10235 10234 10233 10231 10230 10228 10226 10225 10225 10223 10221 10219 10217 10216 10214 10212 10210 10207 10205 10203 10201 10198 10195 10192 10189 10185 10182 10178 10174 10169 10165 10162 10159 10156 10153 10150 10148 10146 10143 10141 10138 10136 10134 10132
10313 10311 10309 10306 10301 10296 10292 10288 10286 10285 10284 10282 10281 10281 10279 10277 10274 10272 10270 10268 10264 10261 10257 10255 10253 10252 10250 10248 10245 10243 10241 10239 10237 10235 10233 10230 10228 10226 10223 10222 10221 10220 10219 10218 10216 10214 10212 10211 10211 10210 10208 10206 10204 10202 10201 10199 10197 10194 10192 10189 10187 10184 10181 10178 10175 10172 10168 10164 10160 10155 10151 10147 10144 10141 10137 10134 10132 10129 10127 10125 10122 10120 10117 10115 10113
10298 10297 10294 10291 10287 10284 10281 10277 10274 10273 10272 10270 10268 10267 10265 10263 10261 10259 10257 10255 10251 10248 10245 10243 10240 10238 10236 10233 10231 10229 10226 10224 10222 10220 10217 10215 10212 10210 10208 10207 10206 10205 10204 10202 10200 10198 10196 10196 10195 10194 10192 10190 10188 10186 10185 10184 10181 10179 10176 10174 10171 10167 10164 10161 10158 10155 10151 10147 10143 10138 10133 10129 10126 10123 10119 10116 10114 10112 10110 10107 10104 10102 10099 10096 10095
10282 10282 10280 10276 10272 10269 10267 10264 10260 10258 10258 10256 10254 10252 10250 10248 10246 10245 10243 10240 10237 10235 10232 10229 10226 10224 10221 10218 10216 10213 10211 10208 10206 10203 10201 10199 10196 10194 10192 10191 10190 10190 10189 10186 10184 10182 10180 10180 10179 10177 10175 10173 10171 10170 10169 10167 10165 10162 10160 10158 10155 10152 10148 10145 10142 10138 10135 10131 10126 10121 10116 10113 10110 10106 10102 10099 10097 10095 10093 10090 10086 10083 10081 10078 10077
10266 10265 10263 10259 10255 10252 10250 10248 10246 10243 10241 10239 10238 10237 10235 10233 10231 10230 10228 10225 10223 10221 10218 10215 10212 10209 10206 10203 10201 10198 10195 10192 10189 10187 10184 10182 10180 10178 10176 10174 10174 10173 10172 10170 10168 10165 10164 10163 10161 10160 10158 10156 10154 10153 10151 10150 10147 10145 10143 10141 10138 10135 10132 10128 10124 10121 10117 10113 10109 10104 10099 10096 10094 10090 10086 10083 10081 10078 10075 10072 10069 10065 10063 10061 10059
10249 10248 10245 10241 10238 10235 10232 10231 10229 10226 10224 10222 10221 10220 10219 10218 10216 10214 10212 10210 10207 10205 10202 10200 10197 10194 10191 10188 10185 10182 10178 10175 10172 10170 10168 10166 10164 10161 10159 10158 10157 10157 10155 10154 10151 10149 10147 10146 10144 10142 10140 10138 10137 10135 10134 10132 10129 10127 10125 10123 10121 10118 10115 10111 10107 10102 10099 10095 10091 10086 10082 10079 10076 10073 10070 10067 10064 10061 10058 10055 10051 10048 10045 10044 10042
10233 10231 10228 10225 10222 10218 10216 10213 10211 10209 10208 10205 10203 10201 10201 10200 10198 10197 10194 10192 10190 10188 10186 10183 10181 10178 10176 10172 10169 10166 10162 10158 10156 10154 10152 10150 10148 10145 10143 10141 10141 10140 10139 10137 10135 10132 10131 10129 10127 10125 10123 10122 10120 10119 10117 10114 10112 10110 10107 10105 10103 10100 10097 10094 10089 10085 10081 10077 10072 10068 10064 10062 10059 10056 10052 10049 10047 10044 10041 10037 10034 10031 10028 10027 10025
10217 10215 10212 10209 10206 10202 10199 10197 10194 10193 10191 10188 10186 10184 10183 10181 10180 10178 10176 10174 10172 10170 10168 10166 10163 10161 10159 10156 10152 10148 10145 10142 10140 10138 10136 10134 10132 10129 10127 10126 10125 10124 10122 10120 10118 10116 10114 10112 10111 10109 10107 10105 10104 10102 10100 10097 10095 10092 10089 10087 10085 10083 10080 10076 10072 10068 10064 10059 10055 10051 10048 10045 10042 10039 10035 10032 10029 10026 10023 10020 10016 10013 10011 10009 10007
10198 10197 10195 10193 10190 10186 10183 10180 10177 10175 10173 10171 10170 10168 10166 10164 10163 10161 10159 10157 10155 10152 10151 10148 10146 10144 10141 10138 10134 10131 10128 10126 10123 10122 10120 10118 10116 10113 10111 10110 10109 10107 10105 10103 10101 10099 10097 10096 10094 10092 10091 10089 10087 10085 10082 10080 10077 10075 10073 10071 10068 10065 10062 10058 10055 10051 10047 10042 10039 10035 10032 10029 10026 10022 10018 10015 10011 10009 10006 10003 9999 9996 9994 9992 9990
10179 10177 10176 10176 10174 10171 10167 10163 10160 10157 10156 10154 10153 10152 10150 10149 10147 10145 10143 10140 10138 10136 10134 10131 10129 10126 10123 10120 10117 10114 10112 10109 10107 10105 10104 10102 10100 10098 10096 10094 10092 10091 10088 10086 10083 10082 10080 10079 10077 10075 10074 10072 10070 10067 10065 10063 10061 10059 10057 10054 10052 10049 10045 10042 10038 10034 10030 10026 10023 10020 10017 10014 10011 10007 10003 9999 9996 9993 9990 9987 9983 9980 9977 9975 9973
10160 10158 10156 10155 10154 10153 10150 10146 10143 10140 10138 10137 10136 10135 10135 10133 10131 10129 10127 10124 10121 10120 10118 10114 10111 10109 10106 10103 10100 10098 10095 10093 10091 10089 10087 10086 10084 10081 10080 10079 10076 10074 10071 10069 10067 10065 10064 10062 10060 10059 10057 10055 10052 10050 10048 10046 10045 10043 10041 10039 10036 10033 10029 10025 10021 10017 10013 10010 10007 10004 10002 9998 9995 9991 9987 9984 9980 9977 9974 9971 9968 9965 9961 9959 9956
10140 10138 10136 10135 10133 10132 10130 10127 10125 10123 10121 10120 10120 10119 10118 10116 10114 10112 10110 10108 10106 10104 10101 10097 10094 10091 10089 10087 10084 10082 10080 10077 10075 10073 10071 10069 10067 10066 10065 10063 10060 10057 10055 10052 10051 10049 10048 10045 10044 10042 10040 10037 10034 10032 10031 10030 10029 10027 10025 10023 10021 10017 10013 10009 10005 10000 9996 9993 9990 9989 9986 9982 9979 9975 9971 9968 9964 9961 9959 9956 9953 9950 9946 9942 9939
10120 10118 10117 10115 10114 10112 10109 10107 10105 10104 10102 10102 10102 10102 10101 10099 10097 10095 10093 10091 10089 10087 10083 10080 10077 10074 10072 10070 10068 10066 10064 10061 10059 10057 10054 10053 10051 10050 10049 10047 10044 10041 10039 10037 10035 10034 10032 10030 10028 10026 10023 10020 10018 10016 10015 10014 10013 10012 10010 10008 10006 10003 9998 9994 9988 9984 9979 9976 9974 9971 9968 9965 9961 9958 9955 9951 9948 9945 9943 9941 9939 9935 9931 9926 9922
10099 10098 10097 10095 10095 10093 10090 10088 10086 10084 10084 10083 10083 10083 10083 10081 10079 10077 10075 10073 10071 10069 10066 10063 10060 10058 10056 10053 10051 10049 10047 10044 10042 10040 10038 10037 10036 10035 10033 10031 10028 10025 10023 10021 10020 10018 10017 10015 10012 10009 10006 10004 10002 10000 9999 9998 9997 9996 9995 9994 9991 9988 9983 9979 9974 9969 9964 9960 9957 9955 9952 9948 9944 9941 9939 9935 9931 9929 9928 9926 9924 9920 9915 9910 9907
10081 10079 10077 10076 10075 10074 10072 10069 10067 10066 10065 10064 10064 10063 10063 10061 10060 10058 10056 10054 10053 10051 10049 10046 10044 10041 10039 10036 10034 10032 10030 10028 10026 10024 10023 10022 10021 10019 10017 10014 10011 10009 10008 10007 10005 10003 10001 9998 9996 9994 9991 9989 9986 9984 9983 9983 9982 9980 9978 9978 9977 9973 9968 9963 9959 9954 9950 9946 9943 9939 9936 9932 9928 9926 9922 9918 9916 9914 9913 9911 9908 9904 9900 9895 9892
10063 10061 10059 10057 10056 10055 10054 10052 10049 10047 10045 10045 10044 10043 10043 10042 10041 10040 10038 10036 10035 10034 10032 10029 10026 10024 10021 10019 10016 10015 10013 10011 10010 10009 10008 10007 10005 10002 9999 9996 9995 9994 9993 9991 9989 9987 9984 9982 9980 9978 9976 9974 9970 9968 9969 9968 9966 9964 9962 9962 9961 9959 9954 9949 9944 9939 9935 9932 9928 9925 9921 9917 9913 9910 9905 9901 9901 9900 9898 9896 9892 9889 9885 9881 9877
10047 10045 10044 10042 10038 10037 10036 10034 10033 10030 10026 10024 10024 10023 10023 10024 10023 10022 10021 10019 10018 10017 10015 10012 10009 10006 10003 10001 9999 9998 9997 9996 9994 9993 9992 9989 9987 9984 9982 9980 9979 9978 9977 9975 9973 9970 9968 9966 9964 9962 9960 9958 9955 9954 9954 9953 9951 9948 9947 9946 9946 9943 9940 9935 9930 9924 9919 9916 9913 9910 9906 9902 9898 9894 9888 9885 9885 9885 9883 9881 9878 9875 9871 9868 9863
10034 10031 10030 10028 10025 10022 10020 10018 10017 10015 10010 10006 10006 10006 10005 10006 10005 10004 10003 10002 10001 10000 9998 9995 9992 9989 9987 9985 9983 9982 9981 9979 9978 9976 9974 9971 9969 9967 9965 9964 9963 9961 9960 9958 9956 9954 9952 9950 9948 9946 9944 9942 9940 9939 9939 9938 9935 9933 9932 9931 9930 9928 9925 9921 9916 9911 9906 9902 9898 9894 9889 9886 9882 9877 9872 9870 9868 9867 9867 9865 9863 9860 9856 9853 9848
10020 10017 10015 10013 10010 10008 10006 10004 10002 10000 9996 9992 9991 9991 9990 9989 9988 9986 9985 9985 9984 9981 9979 9977 9976 9974 9972 9970 9968 9966 9965 9963 9961 9958 9956 9954 9952 9951 9949 9948 9946 9945 9944 9942 9940 9938 9936 9934 9932 9930 9929 9927 9924 9923 9923 9922 9920 9918 9917 9917 9915 9912 9909 9906 9901 9897 9894 9890 9885 9879 9874 9871 9867 9863 9859 9856 9853 9851 9851 9849 9847 9845 9842 9838 9831
9999 9998 9998 9999 9996 9992 9989 9987 9985 9984 9982 9979 9978 9978 9976 9975 9973 9971 9970 9969 9966 9963 9962 9961 9960 9958 9956 9954 9952 9950 9948 9946 9944 9941 9939 9937 9936 9935 9933 9931 9930 9929 9928 9926 9924 9922 9920 9918 9916 9915 9914 9912 9909 9907 9907 9907 9905 9903 9902 9902 9900 9897 9894 9890 9886 9884 9881 9877 9871 9865 9860 9857 9854 9850 9847 9843 9840 9837 9837 9835 9833 9831 9829 9824 9817
9981 9978 9977 9979 9980 9978 9975 9971 9967 9966 9966 9964 9963 9963 9962 9960 9958 9957 9955 9953 9950 9948 9947 9946 9944 9942 9940 9938 9936 9934 9931 9929 9927 9925 9923 9922 9921 9920 9918 9916 9914 9913 9912 9910 9908 9906 9904 9902 9901 9900 9899 9896 9893 9891 9891 9892 9890 9888 9887 9887 9886 9883 9879 9875 9873 9871 9868 9863 9857 9851 9847 9843 9841 9838 9835 9831 9827 9824 9823 9822 9820 9818 9816 9811 9807
9971 9966 9962 9960 9962 9961 9959 9957 9953 9951 9950 9949 9948 9948 9947 9945 9943 9941 9939 9936 9935 9934 9933 9931 9929 9927 9925 9923 9920 9918 9915 9913 9912 9910 9909 9908 9906 9905 9903 9901 9900 9898 9897 9895 9893 9891 9889 9887 9886 9885 9883 9881 9879 9877 9876 9877 9876 9874 9873 9872 9872 9869 9865 9862 9860 9858 9854 9849 9843 9838 9834 9830 9827 9825 9822 9818 9815 9811 9809 9809 9807 9805 9803 9800 9796
9958 9955 9952 9951 9951 9948 9944 9941 9939 9938 9938 9936 9934 9934 9932 9929 9927 9925 9922 9920 9919 9918 9917 9916 9915 9912 9910 9907 9905 9903 9901 9899 9898 9896 9895 9893 9892 9890 9888 9887 9885 9884 9882 9880 9878 9876 9875 9873 9871 9871 9869 9867 9865 9864 9862 9862 9862 9861 9859 9859 9858 9856 9852 9850 9848 9844 9839 9835 9830 9826 9822 9818 9814 9812 9808 9804 9801 9797 9795 9795 9793 9792 9791 9789 9785
9947 9942 9939 9939 9940 9938 9933 9930 9927 9925 9925 9923 9922 9921 9919 9915 9913 9910 9907 9906 9904 9902 9902 9900 9899 9897 9895 9892 9890 9889 9887 9885 9883 9882 9880 9879 9877 9876 9874 9872 9871 9870 9868 9866 9864 9863 9861 9860 9858 9857 9856 9854 9852 9851 9850 9848 9848 9848 9847 9846 9845 9844 9841 9838 9835 9831 9826 9822 9819 9814 9810 9806 9802 9798 9794 9790 9787 9784 9783 9781 9780 9779 9777 9775 9773
9941 9936 9931 9929 9928 9927 9923 9919 9916 9914 9913 9911 9910 9909 9906 9904 9902 9899 9896 9894 9892 9890 9889 9887 9885 9883 9881 9879 9878 9876 9874 9872 9870 9869 9867 9866 9864 9862 9861 9859 9857 9856 9854 9852 9851 9849 9848 9847 9845 9844 9843 9841 9840 9839 9837 9836 9835 9835 9835 9834 9832 9830 9828 9825 9822 9819 9815 9811 9807 9803 9799 9794 9790 9785 9780 9776 9773 9771 9770 9768 9766 9765 9763 9761 9759
9934 9929 9925 9922 9920 9918 9915 9910 9906 9904 9903 9901 9899 9898 9896 9893 9891 9889 9886 9884 9882 9880 9878 9875 9873 9871 9869 9868 9866 9864 9863 9861 9859 9858 9856 9854 9851 9850 9848 9846 9844 9843 9841 9839 9838 9837 9836 9835 9833 9831 9829 9828 9828 9827 9825 9824 9823 9822 9822 9821 9819 9816 9813 9811 9809 9807 9804 9800 9796 9793 9788 9783 9778 9772 9768 9764 9761 9758 9755 9753 9751 9749 9748 9747 9744
9924 9920 9916 9913 9910 9907 9905 9901 9897 9894 9892 9890 9888 9887 9885 9883 9880 9878 9876 9873 9871 9869 9866 9864 9862 9860 9858 9856 9855 9853 9852 9850 9848 9846 9843 9841 9839 9837 9835 9834 9832 9830 9829 9828 9826 9826 9825 9823 9821 9819 9817 9817 9817 9815 9813 9812 9812 9811 9809 9807 9804 9801 9799 9798 9797 9795 9792 9788 9786 9782 9778 9772 9767 9761 9758 9754 9750 9746 9742 9739 9736 9734 9732 9731 9729
9911 9909 9906 9903 9900 9897 9894 9891 9888 9885 9882 9880 9878 9876 9874 9871 9869 9867 9865 9862 9860 9857 9855 9853 9851 9849 9847 9845 9843 9842 9840 9838 9835 9833 9831 9829 9827 9825 9824 9822 9820 9819 9818 9817 9816 9815 9813 9812 9810 9808 9807 9805 9804 9803 9802 9801 9801 9799 9795 9792 9789 9788 9786 9785 9783 9781 9779 9777 9774 9770 9766 9761 9756 9752 9748 9744 9739 9734 9730 9727 9724 9722 9719 9717 9715
9898 9896 9894 9891 9889 9886 9883 9880 9877 9874 9872 9869 9867 9865 9863 9861 9859 9856 9854 9852 9849 9847 9845 9842 9840 9838 9836 9834 9832 9830 9828 9826 9824 9822 9820 9818 9816 9815 9813 9811 9809 9809 9808 9807 9805 9804 9802 9801 9800 9798 9796 9794 9792 9791 9790 9789 9788 9786 9782 9779 9777 9775 9773 9772 9770 9768 9767 9765 9762 9758 9753 9749 9745 9741 9737 9732 9727 9723 9719 9716 9713 9710 9708 9706 9704
9886 9884 9881 9879 9877 9874 9871 9868 9866 9863 9861 9858 9856 9854 9852 9850 9847 9845 9843 9841 9839 9836 9834 9832 9829 9827 9825 9823 9821 9819 9817 9815 9813 9811 9809 9807 9806 9804 9803 9801 9799 9799 9798 9796 9795 9792 9791 9790 9789 9787 9786 9784 9781 9779 9778 9777 9775 9772 9769 9768 9766 9763 9761 9759 9757 9756 9755 9753 9749 9745 9741 9737 9734 9731 9727 9721 9716 9712 9708 9705 9701 9698 9695 9693 9691
9877 9874 9871 9869 9867 9864 9860 9857 9854 9852 9850 9848 9845 9843 9841 9839 9837 9835 9832 9830 9828 9826 9824 9821 9819 9817 9815 9813 9811 9808 9806 9805 9802 9800 9799 9797 9795 9794 9792 9790 9789 9789 9787 9785 9784 9781 9780 9780 9779 9777 9775 9773 9770 9767 9766 9765 9762 9759 9758 9756 9754 9752 9750 9748 9745 9743 9743 9741 9737 9732 9729 9725 9722 9719 9715 9710 9705 9701 9697 9694 9690 9687 9684 9681 9678
9867 9865 9862 9860 9858 9855 9851 9848 9845 9842 9840 9838 9835 9833 9831 9829 9827 9825 9823 9821 9818 9816 9814 9812 9810 9808 9806 9803 9801 9799 9797 9795 9793 9791 9789 9787 9786 9784 9782 9780 9780 9779 9777 9775 9773 9772 9771 9770 9768 9766 9764 9763 9760 9758 9755 9752 9750 9748 9746 9745 9743 9741 9738 9736 9733 9731 9730 9728 9723 9720 9717 9713 9709 9706 9702 9698 9694 9690 9687 9683 9680 9677 9673 9670 9668